Temperature
9 8 8 9 10 11 11 11 11 12 13 13 12 12 13 13 13 13 14 14 13 12 12 11 11 12 12 12 12 12 12 12 12 12 12 12 11 11 11 11 11 11 11 11
8 7 9 10 10 11 11 10 11 12 13 12 12 12 12 13 12 13 13 13 12 12 11 11 11 11 11 11 11 11 11 11 11 12 12 11 11 11 11 11 11 11 11 11
7 8 10 10 10 10 10 10 10 10 11 12 11 10 11 12 13 13 12 12 12 11 11 10 10 10 10 10 11 11 11 11 11 11 11 11 11 11 10 10 10 10 10 10
8 9 9 9 9 9 9 10 11 10 9 9 10 9 11 11 11 11 11 11 11 11 10 10 9 9 10 10 10 10 10 10 10 10 11 11 11 11 10 10 10 10 10 10
7 8 8 8 9 9 9 10 10 10 9 9 10 9 10 11 11 11 10 11 11 10 10 9 9 9 9 9 9 9 10 10 10 10 10 10 10 10 10 10 10 10 9 10
7 8 8 8 9 9 9 9 9 9 8 7 9 9 9 10 10 10 10 10 10 10 9 9 8 8 8 9 9 9 9 9 9 9 9 10 10 10 10 9 9 9 9 9
7 7 8 8 8 8 8 7 6 6 7 7 10 9 9 10 10 10 10 10 10 9 8 8 8 8 8 8 8 8 8 9 9 9 9 9 9 9 9 9 9 9 9 9
5 5 7 7 7 7 7 7 6 6 7 8 9 8 8 10 10 10 10 10 9 9 8 8 7 7 7 7 8 8 8 8 8 8 9 9 9 9 9 9 9 9 9 9
5 5 7 7 7 7 6 6 7 7 7 7 8 9 9 9 9 9 9 9 8 8 7 7 7 7 7 7 7 7 7 8 8 8 8 8 8 8 8 8 8 8 8 8
4 4 6 7 7 7 7 7 6 6 6 7 8 8 8 8 8 8 8 8 8 7 7 7 6 6 6 6 7 7 7 7 7 8 8 8 8 8 8 8 8 8 8 8
4 3 5 6 5 5 6 6 6 6 6 6 7 7 8 8 8 7 7 8 7 7 6 6 6 6 6 6 6 6 6 6 7 7 7 7 7 7 7 7 7 7 7 7
4 3 3 5 6 6 6 6 5 5 5 6 6 6 8 8 8 7 7 7 7 6 6 5 5 5 5 5 5 5 6 6 6 6 6 7 7 7 7 7 7 7 7 7
3 2 3 4 4 5 5 5 5 5 5 5 6 6 7 7 7 7 7 7 7 6 5 5 5 5 5 5 5 5 5 5 6 6 6 6 6 6 6 7 7 7 6 6
4 2 2 3 3 3 3 4 4 4 4 5 6 6 6 6 6 6 6 6 6 5 5 4 4 4 4 4 4 4 5 5 5 5 5 6 6 6 6 6 6 6 6 6
2 2 2 3 4 4 4 4 4 4 4 4 5 5 6 6 5 6 6 5 5 5 4 4 4 3 3 3 4 4 4 4 5 5 5 5 5 5 5 6 6 6 6 6
1 1 2 3 4 4 3 4 4 4 4 5 5 5 6 6 5 5 5 4 4 4 3 3 3 3 3 3 3 3 4 4 4 4 5 5 5 5 5 5 5 5 5 5
0 0 1 2 4 3 2 3 3 3 4 4 4 4 4 4 4 4 3 3 3 3 3 2 3 2 2 2 3 3 3 3 3 4 4 4 4 4 5 5 5 5 5 5
-0 -0 1 2 2 1 2 4 3 3 3 3 4 4 4 3 3 3 3 3 2 2 2 2 2 2 2 2 2 3 3 3 3 3 3 4 4 4 4 4 4 4 4 4
1 0 1 1 1 2 3 3 2 2 2 2 2 3 3 3 3 2 2 2 2 1 1 2 2 2 2 2 2 3 3 3 3 3 3 3 4 4 4 4 4 4 4 4
1 0 0 1 1 2 2 2 2 2 1 1 2 1 1 2 1 1 2 1 1 1 1 1 1 1 1 2 2 2 3 3 3 3 3 3 3 3 3 3 3 3 3 3
-1 -1 -0 0 1 1 0 1 2 1 0 1 1 1 0 -0 0 0 1 0 0 0 1 1 1 1 1 1 2 2 2 2 2 2 2 2 2 3 3 3 3 3 3 3
-1 -1 -1 -1 -0 0 -0 0 -0 -1 -0 -0 -0 -0 -0 -1 -0 -0 -0 -0 -0 -0 -0 0 0 0 1 1 1 2 2 2 2 2 2 2 2 2 2 2 2 2 2 2
-1 -1 -1 -1 -1 -0 -0 -1 -1 -1 -1 -1 -1 -1 -1 -1 -2 -1 -1 -1 -1 -1 -1 -1 -0 -0 0 0 1 1 1 1 1 1 1 1 1 1 1 2 2 1 1 1
-1 -1 -1 -2 -1 -1 -1 -1 -1 -2 -2 -2 -2 -2 -2 -2 -2 -2 -2 -2 -2 -2 -2 -1 -1 -1 -0 -0 0 0 1 1 1 1 1 1 1 1 1 1 1 1 1 1
-2 -2 -2 -2 -2 -1 -1 -2 -2 -2 -2 -3 -3 -3 -3 -3 -3 -3 -3 -3 -3 -2 -2 -2 -2 -1 -1 -0 -0 0 0 0 1 0 0 0 0 0 0 0 0 0 -0 -0
-3 -3 -3 -2 -2 -2 -2 -2 -3 -3 -3 -3 -3 -3 -3 -3 -3 -3 -3 -3 -3 -3 -3 -2 -2 -2 -1 -1 -1 -0 -0 -0 -0 -0 -0 -0 -0 -0 -0 -0 -1 -1 -1 -1
Wind_Speed
5 6 8 11 11 9 7 9 10 8 5 7 9 8 6 5 6 5 4 5 5 5 5 5 5 5 5 5 6 7 7 7 7 6 5 5 4 4 4 5 7 7 6 5
4 8 9 8 9 10 9 9 9 4 3 5 7 8 6 5 6 5 5 5 5 4 4 5 5 6 5 5 5 6 6 7 7 5 5 4 5 4 4 4 5 6 6 5
7 4 7 9 9 9 8 8 7 4 4 5 4 6 8 6 6 5 4 3 4 5 5 5 5 5 5 5 5 5 6 6 7 7 6 5 4 4 3 4 3 5 6 5
6 5 5 7 8 7 8 6 6 5 4 4 6 4 6 7 6 5 4 4 3 3 4 5 5 4 5 4 4 4 5 5 6 7 7 8 6 5 4 4 4 4 5 5
3 3 6 7 7 6 4 3 5 6 5 3 5 4 4 7 7 6 5 4 4 4 4 4 4 4 4 5 5 4 5 5 5 6 7 7 6 4 4 5 6 5 4 5
4 2 3 5 4 4 1 0 2 3 2 5 8 6 4 5 7 6 5 4 4 5 4 4 4 3 3 4 4 4 5 5 5 5 6 6 7 7 7 6 6 5 3 3
3 3 1 2 2 2 2 3 2 3 4 5 6 5 3 2 3 6 5 4 4 5 4 4 4 4 3 3 4 4 5 5 5 5 5 6 6 7 8 7 6 5 4 3
2 2 2 2 2 3 5 4 3 3 4 3 6 6 3 2 3 3 4 4 4 4 4 3 3 3 3 3 3 4 4 5 5 5 4 4 5 5 4 5 5 5 4 3
1 2 1 2 1 2 4 4 3 2 2 2 4 2 2 2 3 4 4 4 4 3 3 3 3 3 3 3 3 4 4 4 4 4 3 4 4 5 5 5 5 4 4 4
2 2 2 1 1 1 2 2 0 1 2 3 3 4 3 3 3 3 4 3 3 3 3 3 2 2 2 3 2 3 4 4 4 4 3 3 3 3 4 5 5 5 5 4
3 1 1 1 3 3 2 2 1 2 3 2 2 1 1 3 4 4 3 2 3 3 3 2 2 2 2 3 3 2 3 3 3 4 3 3 3 3 4 4 5 5 5 5
3 1 2 2 1 1 1 2 2 2 3 2 1 1 3 4 4 4 3 2 3 4 3 3 2 2 3 3 3 2 2 2 3 3 3 3 3 3 3 4 4 5 5 5
2 1 0 1 0 1 1 2 2 2 1 2 2 2 2 5 4 3 3 2 3 4 4 4 3 2 2 2 2 2 2 2 2 3 4 4 3 3 3 3 4 5 5 5
3 1 2 3 2 1 3 3 2 2 3 3 3 2 3 3 3 3 3 3 3 3 4 4 3 2 2 1 1 2 2 2 2 3 4 3 3 3 3 3 4 4 5 5
2 2 3 4 3 2 3 4 4 4 4 3 3 3 4 2 2 3 3 3 3 3 3 3 2 2 2 2 1 1 2 2 2 3 3 3 2 3 3 3 3 4 4 4
2 2 2 3 4 4 5 5 5 6 6 5 4 4 3 3 3 4 3 3 2 2 3 3 3 2 2 2 1 1 2 2 2 2 3 3 3 2 3 3 3 4 4 4
1 1 2 2 2 2 4 5 6 5 4 5 6 4 3 4 4 3 3 2 2 2 2 2 2 2 2 1 0 1 1 2 2 2 2 2 3 2 2 3 3 4 4 4
2 2 2 2 1 4 3 1 1 2 2 2 3 3 3 3 3 2 2 2 2 2 2 2 2 2 2 2 1 1 1 2 2 2 2 2 2 2 2 2 3 3 3 3
3 2 1 1 3 4 2 1 0 2 2 3 3 3 4 4 3 2 3 3 2 2 2 2 2 1 2 2 1 1 2 2 2 2 1 1 2 2 2 2 3 3 3 3
0 1 1 2 3 3 1 2 2 1 2 3 4 4 4 3 2 3 4 4 3 3 3 3 2 2 2 2 1 2 2 2 2 1 1 1 1 2 2 2 2 2 2 3
0 1 3 3 3 2 3 5 2 1 2 4 4 3 3 2 2 3 4 4 4 4 4 3 3 2 2 2 1 2 2 2 2 2 2 2 1 1 2 2 1 2 2 2
2 2 2 2 3 3 4 3 1 1 4 4 4 4 2 3 3 3 4 4 4 4 4 4 3 3 3 2 2 2 2 2 2 2 2 2 2 1 2 2 2 2 2 3
2 3 2 3 3 1 1 2 2 3 4 5 4 4 3 2 3 4 4 4 4 4 5 4 3 3 3 3 2 2 2 2 2 2 2 2 2 2 2 2 2 2 2 2
1 1 2 3 3 2 2 3 4 5 5 5 4 4 3 2 3 3 4 4 4 4 4 4 4 4 4 4 3 2 2 2 2 2 2 1 2 2 2 2 1 1 1 1
2 1 2 3 3 3 1 3 4 5 5 5 5 4 3 2 2 3 3 3 4 4 4 3 3 3 3 4 3 2 2 2 2 2 1 1 2 2 2 2 1 1 1 1
2 2 2 3 2 2 4 3 4 4 4 4 4 3 3 2 2 2 2 3 3 3 3 3 3 3 3 3 3 2 2 2 2 2 2 1 2 2 2 2 2 3 2 3
Wind_Direction
197 204 212 212 220 233 227 229 235 235 209 212 222 229 221 194 191 197 194 175 160 151 138 130 130 130 130 129 136 146 144 147 141 137 140 136 144 143 131 123 125 125 120 114
198 219 227 227 231 236 236 236 239 244 218 219 222 230 223 204 196 191 189 168 156 136 131 127 127 130 135 139 139 144 148 152 147 147 147 140 139 137 132 124 127 130 124 118
212 226 229 229 227 230 238 233 238 239 255 240 224 234 214 217 197 182 168 158 146 150 151 142 137 131 138 145 149 152 153 156 152 144 133 125 113 111 120 135 141 136 132 126
222 245 240 232 221 221 234 245 245 233 213 227 204 230 214 197 186 172 163 151 149 150 152 147 142 141 147 148 143 148 151 153 153 146 149 152 153 154 158 154 150 140 135 131
227 227 227 220 221 228 229 255 247 232 226 242 214 218 219 179 189 181 170 158 152 144 140 140 140 143 142 142 145 149 148 151 151 154 156 158 154 149 141 142 145 145 141 137
240 214 223 220 231 234 239 221 241 246 228 233 214 211 222 196 190 175 168 158 142 134 130 127 117 110 111 125 137 145 150 153 152 152 161 161 157 151 149 152 152 152 148 145
242 208 188 192 200 190 176 147 168 192 212 231 208 207 217 164 152 159 162 155 136 134 133 130 129 133 131 131 138 149 148 152 149 151 165 160 161 160 161 160 159 154 153 155
229 225 208 188 191 201 205 189 195 199 204 232 196 202 190 140 125 130 123 129 123 122 128 131 141 145 146 147 150 154 155 155 153 156 161 157 158 162 160 154 154 156 157 159
299 251 258 194 191 180 189 219 263 286 260 207 200 177 156 115 117 125 114 100 113 116 119 127 135 139 142 153 159 160 156 153 154 154 145 151 154 159 157 155 147 148 147 153
325 286 248 214 182 248 225 227 169 218 227 228 208 201 191 165 142 113 113 111 118 108 102 107 124 130 135 142 141 138 147 149 149 146 153 150 146 146 150 150 151 152 150 147
352 297 242 201 206 204 191 208 222 238 255 234 211 230 69 156 157 149 139 120 118 108 100 98 102 109 104 109 120 119 126 130 137 145 150 139 139 141 146 152 155 153 148 150
357 322 240 227 308 346 249 200 189 209 259 266 258 279 23 60 101 124 134 122 111 109 98 87 77 78 95 108 117 119 121 121 133 144 144 137 136 141 157 157 153 147 145 149
359 8 202 186 208 353 294 261 243 270 285 265 238 246 33 52 67 89 100 90 90 93 87 78 72 58 72 98 110 115 117 120 120 129 138 137 143 147 161 159 149 145 145 144
347 233 229 226 247 249 255 259 241 218 236 257 246 255 330 9 34 41 50 59 75 87 92 85 70 49 33 63 100 109 112 115 127 127 128 135 148 154 151 149 141 144 146 145
359 273 273 283 273 260 270 251 243 232 240 246 280 295 293 329 9 19 39 49 60 71 69 62 55 38 27 28 61 90 103 108 116 122 124 132 134 137 136 141 143 143 142 146
359 299 290 286 256 241 267 257 245 244 251 257 276 292 336 4 35 41 36 46 49 53 46 34 36 35 31 21 34 65 80 96 107 115 122 123 123 123 135 145 144 138 137 143
295 292 284 265 265 294 251 236 225 228 243 243 254 267 360 1 8 22 14 25 28 33 28 23 13 8 4 352 35 76 97 97 106 108 107 112 124 128 137 147 151 150 150 144
220 270 260 269 326 235 239 197 215 212 251 294 305 323 336 338 331 8 15 20 11 13 24 5 353 349 352 357 44 84 103 102 111 111 110 109 119 130 130 139 153 153 144 147
210 205 251 242 240 252 255 340 150 205 267 337 330 336 350 356 350 357 16 17 21 17 4 354 349 354 7 7 40 95 106 104 107 115 121 125 125 133 136 146 150 148 143 148
202 182 221 247 244 246 330 345 319 216 249 4 360 332 330 344 306 299 353 6 12 10 6 3 11 26 28 16 34 93 101 100 103 107 112 109 121 134 137 150 141 126 134 144
271 239 224 246 248 267 347 325 348 162 264 341 338 326 335 313 295 306 341 2 18 17 11 14 21 21 16 18 42 85 86 84 77 71 76 83 92 112 120 112 118 125 125 134
203 224 223 237 238 258 358 10 56 308 334 340 341 344 345 336 342 354 2 6 14 15 11 16 19 10 12 26 57 77 71 66 72 82 87 92 92 90 103 109 111 125 136 141
192 202 221 224 233 308 26 39 356 351 340 342 346 348 359 348 345 354 0 3 5 6 4 8 14 8 15 28 54 80 67 78 84 88 83 90 84 86 104 120 122 121 128 138
244 244 243 271 275 318 0 17 7 355 350 351 359 357 3 351 347 353 355 358 1 4 4 5 14 13 10 19 37 50 69 81 87 95 91 96 105 100 102 103 114 124 134 145
282 272 252 253 281 313 331 357 350 350 358 3 5 2 355 4 349 351 356 358 357 358 355 1 7 5 2 16 30 32 58 84 86 91 90 92 100 102 97 82 80 102 89 129
245 247 252 255 294 296 301 329 346 345 348 353 354 357 3 7 348 354 355 356 356 354 0 10 12 7 5 15 20 16 40 85 102 101 89 88 95 91 96 93 62 53 74 66
Height
1443 1446 1446 1445 1445 1445 1445 1447 1447 1445 1443 1446 1448 1449 1449 1449 1451 1452 1454 1456 1459 1462 1464 1466 1468 1469 1471 1473 1475 1478 1480 1483 1486 1488 1491 1494 1497 1499 1501 1503 1505 1507 1508 1509
1444 1444 1442 1442 1443 1443 1444 1447 1446 1444 1442 1445 1448 1449 1447 1447 1449 1450 1452 1454 1457 1460 1462 1464 1465 1467 1469 1471 1473 1475 1478 1480 1483 1486 1489 1492 1495 1497 1499 1501 1503 1505 1506 1507
1442 1441 1441 1441 1442 1443 1443 1446 1446 1446 1445 1444 1448 1451 1447 1446 1447 1449 1451 1453 1456 1458 1459 1461 1463 1464 1466 1468 1470 1472 1475 1478 1481 1484 1487 1490 1493 1495 1497 1499 1501 1503 1504 1506
1441 1441 1441 1441 1441 1442 1446 1442 1443 1445 1450 1451 1448 1456 1446 1443 1445 1447 1449 1452 1454 1456 1458 1459 1461 1462 1464 1466 1468 1471 1473 1476 1479 1481 1484 1487 1489 1492 1494 1497 1499 1501 1502 1504
1441 1440 1441 1441 1442 1442 1443 1441 1444 1445 1448 1451 1448 1453 1446 1440 1444 1446 1448 1450 1453 1455 1456 1458 1459 1461 1462 1465 1467 1469 1471 1473 1476 1479 1482 1485 1488 1490 1492 1495 1497 1499 1501 1502
1440 1440 1441 1441 1442 1442 1443 1444 1445 1445 1449 1455 1446 1449 1446 1441 1440 1443 1446 1449 1451 1453 1455 1457 1458 1459 1461 1463 1465 1467 1469 1471 1474 1477 1480 1483 1485 1488 1490 1492 1494 1496 1498 1500
1441 1440 1440 1441 1443 1444 1445 1451 1456 1457 1456 1450 1438 1443 1445 1439 1437 1440 1443 1446 1449 1451 1453 1455 1456 1457 1459 1460 1462 1464 1466 1469 1471 1474 1477 1480 1483 1485 1488 1490 1492 1494 1496 1497
1445 1445 1441 1440 1443 1445 1445 1448 1454 1455 1452 1445 1437 1442 1443 1437 1437 1439 1441 1444 1447 1450 1451 1453 1454 1456 1457 1458 1460 1462 1464 1466 1469 1472 1474 1478 1480 1483 1485 1488 1490 1491 1493 1495
1448 1447 1441 1441 1442 1444 1446 1448 1445 1449 1446 1447 1442 1439 1439 1436 1437 1439 1441 1444 1447 1449 1450 1452 1453 1454 1455 1456 1458 1460 1462 1464 1467 1469 1472 1475 1478 1480 1483 1485 1487 1489 1491 1493
1450 1450 1444 1442 1443 1444 1445 1445 1449 1453 1452 1446 1441 1440 1442 1440 1439 1440 1442 1444 1446 1448 1450 1451 1452 1453 1454 1455 1457 1459 1460 1462 1464 1467 1469 1472 1475 1478 1480 1482 1484 1486 1488 1490
1450 1453 1448 1445 1445 1445 1446 1447 1449 1450 1449 1448 1448 1446 1436 1436 1437 1440 1441 1443 1445 1447 1448 1450 1451 1452 1453 1454 1455 1456 1458 1460 1462 1465 1467 1470 1472 1475 1477 1480 1482 1484 1485 1487
1451 1453 1452 1448 1445 1444 1445 1446 1449 1454 1452 1446 1447 1451 1436 1435 1436 1438 1441 1443 1445 1446 1448 1449 1450 1451 1452 1452 1453 1455 1456 1458 1460 1463 1465 1467 1470 1472 1474 1477 1479 1481 1483 1485
1453 1456 1456 1452 1453 1450 1449 1447 1448 1451 1451 1449 1449 1451 1437 1437 1438 1439 1441 1443 1444 1446 1447 1448 1449 1450 1450 1451 1452 1453 1455 1456 1458 1461 1463 1465 1467 1469 1472 1474 1476 1478 1480 1481
1453 1456 1457 1455 1450 1451 1451 1450 1449 1452 1453 1450 1445 1445 1442 1441 1441 1442 1442 1443 1444 1446 1447 1447 1448 1449 1449 1450 1451 1452 1453 1455 1456 1459 1461 1462 1465 1467 1469 1472 1474 1475 1477 1478
1455 1456 1453 1450 1447 1448 1449 1449 1448 1450 1449 1450 1445 1444 1443 1442 1443 1443 1443 1444 1445 1446 1446 1447 1447 1448 1448 1449 1450 1451 1452 1453 1455 1456 1458 1460 1462 1465 1466 1469 1471 1473 1474 1476
1457 1458 1454 1451 1446 1446 1448 1446 1446 1446 1446 1446 1445 1445 1442 1442 1443 1444 1444 1444 1445 1445 1446 1446 1446 1446 1447 1447 1448 1449 1450 1451 1453 1454 1456 1458 1460 1462 1464 1466 1468 1470 1471 1473
1459 1461 1458 1453 1446 1446 1451 1446 1445 1445 1445 1445 1446 1446 1444 1444 1445 1445 1445 1444 1445 1445 1445 1445 1445 1445 1446 1446 1447 1447 1448 1450 1451 1452 1454 1456 1457 1459 1461 1463 1465 1467 1469 1470
1460 1460 1459 1454 1453 1459 1450 1442 1443 1444 1445 1445 1445 1445 1444 1445 1445 1445 1445 1444 1444 1444 1444 1444 1444 1444 1444 1445 1446 1446 1447 1448 1450 1451 1452 1454 1455 1457 1459 1460 1462 1464 1466 1467
1456 1459 1458 1456 1455 1448 1445 1444 1445 1447 1447 1446 1446 1445 1445 1444 1443 1444 1444 1444 1444 1443 1443 1443 1443 1443 1443 1443 1444 1445 1445 1446 1448 1449 1450 1452 1453 1455 1456 1457 1459 1461 1463 1464
1456 1457 1460 1456 1454 1451 1449 1445 1443 1446 1449 1447 1446 1446 1445 1444 1446 1445 1444 1443 1442 1442 1442 1441 1441 1441 1441 1442 1442 1443 1443 1444 1446 1447 1449 1450 1451 1453 1454 1455 1457 1458 1460 1461
1461 1459 1460 1457 1455 1451 1451 1446 1444 1451 1452 1448 1446 1446 1445 1445 1446 1445 1443 1442 1441 1440 1440 1440 1440 1440 1440 1440 1441 1441 1442 1443 1444 1446 1447 1448 1449 1451 1452 1453 1455 1456 1457 1459
1461 1461 1460 1459 1457 1456 1451 1447 1451 1452 1449 1447 1446 1445 1444 1444 1443 1442 1441 1440 1439 1439 1439 1438 1438 1438 1439 1439 1440 1440 1441 1442 1443 1444 1445 1446 1448 1449 1450 1451 1452 1453 1454 1456
1458 1459 1458 1458 1457 1453 1451 1451 1451 1450 1448 1447 1446 1445 1444 1443 1442 1441 1440 1439 1439 1438 1438 1437 1437 1437 1437 1438 1438 1439 1440 1441 1442 1443 1444 1445 1446 1447 1448 1449 1450 1451 1452 1453
1456 1454 1455 1455 1452 1451 1451 1450 1450 1449 1448 1446 1445 1444 1443 1442 1441 1440 1439 1438 1438 1437 1437 1436 1436 1436 1436 1437 1437 1438 1439 1439 1440 1441 1442 1443 1444 1445 1446 1447 1448 1449 1450 1451
1457 1455 1455 1454 1452 1451 1450 1450 1449 1448 1446 1445 1444 1443 1442 1441 1440 1439 1439 1438 1437 1437 1436 1436 1435 1435 1435 1436 1436 1437 1437 1438 1439 1440 1441 1442 1443 1443 1444 1445 1446 1447 1449 1450
1455 1455 1455 1453 1452 1451 1450 1449 1448 1446 1445 1444 1442 1441 1440 1440 1439 1439 1438 1438 1437 1436 1435 1435 1435 1435 1434 1435 1435 1436 1436 1437 1437 1438 1439 1440 1441 1442 1443 1443 1445 1446 1448 1449